COSMOS 375 DEB

Satellite information

Favourite Embed

Satellite Type and Status

DEBRISIN ORBIT

Key statistics

Satellite COSMOS 375 DEB at a glance.

Uptime

20134

Days in orbit

Revolutions

≈ 14.0

Per day

Orbit

LEO

Low Earth Orbit

Inclination

62.6

Latest

Satellite identification and parameters

Extended collection of information and parameters for COSMOS 375 DEB.

Object identification

Identified? True

Debris? True

Object name: COSMOS 375 DEB

International designator: 1970-091AX

Object number (NORAD): 19949

Object ID (CCSDS): 19949

Country: COMMONWEALTH OF INDEPENDENT STATES (CIS)

Current information (Y/N): Y

RCS size: SMALL

Orbital parameters

Period: 102.65 minutes

Inclination: 62.6047 deg

SMA: 7262.165 km

Apoapsis: 1260.051 km

Periapsis: 508.009 km

RAAN: 130.0351 deg

Eccentricy: 0.05177806

Argument of periapsis: 157.9714 deg

Mean anomaly: 204.4502 deg

Mean motion: 14.02825288 rev/day

Mean motion (dot): 0.00010626 rev/day2

B* drag term: 0.0020639775 1/REarth

Two-line elements (TLE)

Creation date: Dec. 12, 2025, 10:14 a.m.

Reference frame: TEME

Reference center: EARTH

Epoch: Dec. 12, 2025, 3:05 a.m. UTC

TLE line 0: 0 COSMOS 375 DEB

TLE line 1: 1 19949U 70091AX 25346.12875648 .00010626 00000-0 20640-2 0 9999

TLE line 2: 2 19949 62.6047 130.0351 0517781 157.9714 204.4502 14.02825288853312

Live tracking on map

Real-time ground track for satellite COSMOS 375 DEB.

In-orbit conjunctions

A list of the most updated potential collisions computed for object COSMOS 375 DEB.

Target Orbit TCA Probability of collision Miss distance Type
COSMOS 2441 SSO 2025-09-30 01:23:25 0.0001062061 262.0 (m) PAYLOAD

Associated space launch

The I2P satellites were the first soviet coorbital ASAT system.

COSMOS 375 DEB was lifted into orbit during the mission ‘Tsiklon-2 | I2P 5’, on board a Tsiklon-2 space rocket.

The launch took place on Oct. 30, 1970, 2:36 a.m. from 90/20.

For more information about the launch, click the button.

Launch to space Tsiklon-2 | I2P 5
Tsiklon-2 | I2P 5

Agency: N/A

Status: Launch Successful

Launch date: Oct. 30, 1970, 2:36 a.m. UTC

Rocket: Tsiklon-2

Launch pad: 90/20

Location: Baikonur Cosmodrome, Republic of Kazakhstan

...

Latest news about this satellite

There are no fresh news available about this satellite. Check back as we update our databases every day.


Newsletter sign-up

Weekly statistics, charts and insights to help you stay on top of the space industry.